Location: Civry
(47.2902°N, 4.6156°E)
Time: 23:22:44
(UTC+00:00)

Cosmos 540 Rocket - Pass Details

Date: 09 April 2020
Orbit: 741 x 753 km, 74.1° (Epoch: 27 May)

Event Time Altitude Azimuth Distance (km) Brightness Sun altitude
Rises 21:26:58 0° 335° (NNW) 3,212 7.9 -27.0°
Reaches altitude 10° 21:29:21 10° 334° (NNW) 2,282 6.9 -27.3°
Enters shadow 21:34:15 68° 272° (W) 806 3.6 -27.8°
